Wind_Speed
16 22 20 17 14 13 16 22 23 20 18 17 16 14 16 16 12 13 16 11 15 15 12 11 12 11 10 8 8 9 8 7 8 10 13 12 11 16 19 18 18 19 21 24 25 25 23 23 23 25 25 24 25 24 23 23 23 23 22 21 20 18 17
14 17 17 19 20 14 11 19 22 18 18 18 15 11 13 15 9 13 21 18 16 15 12 13 14 12 10 8 8 7 7 6 5 8 16 15 9 13 18 16 18 21 22 22 22 21 22 24 24 25 25 25 26 25 24 24 25 25 24 23 22 21 19
13 16 16 18 23 19 13 14 15 17 21 18 14 12 10 12 10 10 18 19 16 14 15 17 16 12 10 7 6 7 6 4 5 8 16 16 9 12 15 13 16 19 19 19 19 18 21 24 24 25 25 26 27 27 26 27 27 26 25 23 23 22 20
11 15 18 19 23 23 17 12 12 19 22 18 17 18 13 12 12 8 12 15 9 8 13 17 15 12 9 6 6 7 5 5 7 9 15 19 17 15 15 13 16 19 18 20 22 20 20 22 22 23 24 25 26 28 28 28 27 26 25 23 23 23 22
12 15 18 16 16 21 22 18 15 18 19 18 19 22 20 15 12 8 10 10 8 12 15 14 13 11 7 6 8 9 8 7 7 9 13 17 19 21 20 18 20 22 21 22 24 23 22 23 23 23 23 23 26 28 28 26 25 25 23 22 23 23 22
13 13 18 17 9 11 18 20 20 19 20 19 17 18 22 20 16 13 9 7 9 14 15 12 10 9 7 7 8 11 12 10 8 8 10 13 16 21 25 25 25 26 26 25 25 24 25 26 26 24 22 23 25 26 25 24 24 25 23 23 24 23 23
8 9 19 22 13 11 13 12 15 18 22 24 20 16 20 22 22 16 6 10 10 14 13 10 10 9 8 8 8 12 13 12 11 10 9 10 12 14 19 23 24 25 26 25 24 23 23 25 25 25 24 25 24 23 23 23 25 25 24 24 24 24 24
4 3 12 19 16 15 17 13 10 13 18 22 21 16 14 18 23 18 8 9 10 14 13 10 11 10 8 8 8 11 13 13 12 11 10 10 10 10 12 15 18 21 23 24 22 21 22 23 23 23 26 27 25 23 23 24 25 25 25 25 24 24 25
7 5 9 15 16 16 19 17 13 13 13 13 14 12 10 12 19 19 10 7 12 16 14 11 11 11 9 8 8 9 12 12 12 11 11 10 10 9 9 10 14 19 23 24 22 22 23 23 23 22 25 27 26 24 24 23 21 19 21 24 24 25 26
7 5 5 10 15 17 18 16 12 14 15 12 12 13 12 12 15 12 2 13 19 18 16 14 14 12 11 10 8 9 10 10 11 10 10 10 9 9 9 8 10 15 21 24 23 23 25 26 25 24 23 23 22 23 23 22 19 16 18 22 23 24 25
2 3 2 3 10 17 18 13 10 12 15 13 14 17 16 14 14 7 6 16 22 21 19 19 16 13 13 11 9 9 8 8 9 9 9 8 8 8 8 8 7 10 16 22 24 24 24 26 26 25 25 23 21 21 22 22 20 20 21 22 23 23 24
3 5 3 3 5 11 12 9 9 8 10 13 17 20 15 12 13 8 12 17 22 26 23 20 18 16 14 12 10 9 8 8 9 9 8 8 7 7 7 7 7 7 10 16 21 23 24 24 24 25 26 26 23 23 23 22 21 22 22 22 23 23 24
1 1 0 1 2 6 6 5 5 5 6 11 16 16 12 12 13 10 17 18 21 27 25 20 18 16 14 13 10 9 10 10 11 10 8 7 6 6 6 7 7 7 8 10 13 17 20 22 22 23 24 26 26 25 25 24 23 23 23 23 24 24 24
3 2 2 2 1 4 6 5 4 4 4 6 8 8 8 10 10 12 20 20 20 24 23 20 17 15 14 12 9 9 12 13 13 11 9 8 6 5 5 5 5 6 7 8 9 11 14 17 20 21 22 24 26 27 27 27 27 25 25 26 26 26 25
6 4 4 5 4 4 6 7 5 5 5 5 5 5 5 8 10 14 20 22 23 23 21 18 16 13 12 12 11 13 16 17 15 13 11 10 8 7 6 4 4 4 5 7 8 8 10 13 16 18 20 22 24 26 27 29 30 30 29 28 27 28 28
9 7 5 5 5 6 9 9 9 9 8 7 6 6 6 9 14 18 22 24 25 24 21 17 15 13 11 12 14 17 19 18 17 16 13 12 10 9 8 6 5 5 6 6 7 7 9 11 12 14 16 19 22 23 24 27 29 30 30 31 31 31 30
10 8 6 6 6 8 10 11 10 10 9 8 7 6 5 7 13 17 20 23 24 22 18 16 15 14 12 12 15 19 19 18 18 17 15 14 13 12 10 9 8 7 6 6 6 7 8 9 10 11 12 14 17 20 22 25 26 28 29 31 34 33 32
10 8 6 7 8 8 7 10 12 10 9 8 7 7 7 7 9 13 16 20 21 17 15 15 15 16 15 13 16 20 21 20 18 17 16 15 14 13 12 11 10 9 7 7 6 6 6 7 8 10 11 12 13 16 19 22 25 27 28 30 34 35 34
10 7 8 8 9 7 7 12 17 15 11 10 10 9 8 8 9 12 15 19 19 15 14 16 19 20 16 14 17 22 23 21 19 18 18 17 15 14 13 12 11 10 9 8 7 6 6 6 7 8 9 10 11 13 15 18 21 24 25 28 31 34 35
10 8 10 8 5 7 8 11 18 18 13 12 12 10 8 9 10 12 16 17 15 15 15 18 24 21 12 10 18 23 23 22 21 20 18 18 17 16 14 14 13 11 10 9 8 7 7 6 6 6 6 7 8 10 11 13 17 20 23 26 29 32 35
11 11 12 10 6 7 9 10 13 14 12 12 11 8 10 13 12 12 15 16 15 17 17 18 20 17 10 11 18 23 23 21 21 21 20 19 19 18 17 16 15 14 13 11 10 9 8 7 6 6 6 6 6 7 8 10 12 15 18 22 26 29 31
10 12 11 11 8 8 9 11 12 13 14 15 14 11 13 16 15 13 14 15 16 17 16 13 13 13 11 11 15 20 23 24 23 22 22 22 21 20 19 18 18 17 15 14 13 12 11 10 9 8 8 7 7 7 8 9 10 11 12 15 19 21 22
10 11 12 12 9 6 11 12 10 12 14 14 15 14 14 17 18 17 15 14 15 16 14 12 12 11 9 11 14 19 22 25 27 25 25 25 24 23 23 23 22 21 19 19 18 17 17 16 14 13 12 11 11 11 10 11 11 11 11 12 15 16 15
11 10 12 12 7 7 13 12 7 8 10 11 11 11 13 15 18 18 17 14 14 15 15 15 13 10 9 15 20 21 22 25 28 27 26 27 27 27 27 27 26 25 25 25 24 24 24 22 20 20 19 17 16 15 14 15 15 15 14 14 15 16 15
13 12 13 11 4 7 10 9 7 9 9 12 10 9 12 17 18 18 17 13 13 16 18 16 12 9 14 22 25 24 26 27 28 25 23 25 26 27 28 28 27 28 29 29 28 28 28 27 26 26 24 23 22 20 19 19 19 18 18 17 17 17 17
12 11 13 12 6 8 8 7 7 8 8 10 10 10 12 16 16 17 16 13 13 16 18 18 16 14 20 27 26 26 27 27 25 23 23 24 25 25 27 27 27 27 28 28 28 29 29 29 29 29 28 28 26 25 24 24 23 23 22 21 21 20 19
12 11 12 11 7 8 8 7 6 7 9 10 11 10 11 12 12 13 16 17 16 15 14 16 20 20 21 24 24 26 27 26 25 24 24 25 25 25 26 27 28 29 28 27 27 28 28 29 30 30 30 30 30 29 28 28 28 27 26 25 24 24 23
11 11 10 10 9 7 7 4 4 8 14 16 12 7 8 12 12 11 14 16 16 14 12 13 16 18 18 19 21 24 24 24 25 25 24 24 24 24 25 26 28 29 29 28 28 27 28 30 30 31 31 32 31 31 31 31 31 31 30 29 28 27 26
10 10 8 7 8 8 8 7 8 12 16 19 16 11 10 13 14 13 14 15 14 14 13 14 15 16 17 18 20 21 21 21 22 24 23 23 24 24 25 26 27 27 28 28 28 27 27 28 30 31 32 32 33 33 33 33 33 33 33 33 32 31 30
11 13 14 13 11 10 10 11 13 14 14 15 17 16 14 15 15 14 14 14 13 13 13 14 14 16 17 17 19 20 19 19 21 22 23 22 23 24 25 26 27 27 27 27 27 27 27 27 29 30 31 33 33 33 33 34 35 35 36 36 35 34 33
10 10 12 14 13 13 12 13 16 17 16 15 16 16 16 17 18 16 15 14 14 14 14 14 14 16 16 17 18 19 19 19 20 21 22 23 23 24 25 26 27 28 28 28 28 28 28 28 29 30 31 33 34 34 34 35 35 36 37 38 38 38 37
14 11 9 11 13 13 14 15 15 16 17 18 18 18 18 19 19 18 17 16 15 15 15 15 14 15 16 16 17 17 18 18 18 20 21 22 22 23 24 25 27 28 29 29 29 29 29 29 30 31 31 32 33 34 35 35 36 37 38 39 39 40 39
15 15 14 14 15 15 16 17 16 15 16 17 16 17 19 19 19 19 18 17 17 16 15 15 15 15 16 16 17 17 18 19 19 19 20 20 21 21 22 24 25 27 28 29 30 31 31 31 31 31 32 32 32 33 34 35 36 37 38 39 40 40 40
14 13 13 15 17 16 15 15 15 14 15 15 13 15 16 16 17 19 19 18 17 16 16 16 16 16 16 17 17 17 17 18 19 19 19 20 21 21 22 24 25 26 27 28 30 31 31 32 32 33 33 33 33 33 34 35 36 37 38 39 40 40 40
17 16 15 16 17 15 14 15 15 14 13 13 15 17 16 14 13 15 17 18 18 17 17 17 17 17 17 17 16 16 17 19 20 21 21 23 23 23 23 25 26 26 27 28 30 31 32 33 33 34 34 34 34 34 35 36 36 37 38 39 40 40 40
22 21 20 20 19 16 17 19 18 15 13 13 14 15 15 14 12 11 13 15 16 17 17 17 17 18 17 17 17 18 20 22 24 26 26 27 28 28 28 28 28 29 29 29 30 31 32 33 34 35 35 36 36 36 36 37 38 38 39 40 40 40 40
28 25 22 23 23 22 23 23 20 18 18 16 14 13 13 14 13 11 11 12 13 15 17 18 19 19 19 19 20 21 23 25 28 29 30 31 31 32 32 31 32 32 32 33 33 33 33 33 34 35 36 36 37 38 38 39 39 40 40 41 41 41 41
Wind_Direction
186 200 212 211 214 215 203 204 214 221 217 216 227 223 207 211 215 198 183 134 110 135 141 143 143 123 114 101 86 96 101 121 145 157 163 157 168 187 191 196 204 207 204 205 204 202 205 208 210 216 218 218 222 217 209 210 210 210 213 213 211 211 211
189 202 207 205 219 233 215 206 211 218 219 226 246 242 208 209 217 195 183 159 145 159 157 155 154 133 123 109 89 93 90 99 131 172 183 172 152 171 180 189 202 206 208 210 203 197 202 208 209 212 214 217 222 221 215 213 213 211 210 209 208 208 208
193 199 203 206 217 227 234 227 215 214 216 219 239 251 229 210 214 202 180 168 169 179 168 165 163 142 135 129 98 95 100 132 163 190 200 196 174 160 163 179 199 201 207 216 209 198 203 210 209 206 206 210 217 221 218 214 214 212 208 206 207 206 207
190 192 201 206 210 215 230 245 228 220 220 214 216 232 241 220 213 205 173 166 162 153 151 158 157 143 145 151 121 118 142 175 179 189 203 208 205 185 166 170 190 194 201 211 210 206 206 211 212 210 208 208 212 218 218 214 213 211 206 205 207 205 205
192 189 194 201 204 209 217 223 217 215 217 215 214 223 233 228 217 209 187 171 134 128 140 143 143 143 148 146 135 145 166 175 176 185 193 201 208 204 192 182 181 188 197 204 206 207 207 210 216 216 216 217 215 215 214 210 210 211 208 208 210 207 206
200 187 189 200 195 191 205 211 213 212 209 211 214 218 225 228 231 226 197 149 134 147 150 137 134 146 143 133 139 155 166 172 175 182 190 194 199 204 205 201 192 190 195 199 198 198 202 207 212 211 215 224 223 216 209 205 208 212 210 210 213 211 210
185 169 189 206 199 172 184 204 218 219 211 212 219 220 220 228 237 234 160 111 139 156 150 141 141 143 136 131 145 164 170 173 175 177 185 194 197 202 207 210 206 199 197 197 195 194 199 204 206 204 209 218 219 210 204 205 209 212 213 214 216 217 216
157 180 203 215 211 193 197 209 227 227 215 217 225 229 233 234 231 221 164 117 147 157 154 156 146 133 130 128 139 166 175 175 177 177 178 184 194 199 201 206 207 200 197 198 200 198 199 200 199 200 204 208 210 207 205 209 210 207 210 216 218 221 222
199 210 205 213 213 210 213 216 224 232 231 238 243 245 256 244 231 229 215 150 153 162 164 160 147 139 135 125 127 154 169 171 172 174 176 178 182 189 195 197 196 196 195 198 201 199 198 201 201 200 200 200 202 203 202 206 206 196 201 213 218 219 221
214 204 192 200 201 203 212 219 226 231 234 248 254 245 240 231 235 255 235 128 143 160 164 158 155 149 136 127 125 136 149 160 165 169 175 178 179 182 188 186 184 189 193 196 200 201 202 205 205 203 202 203 205 202 196 198 204 206 208 213 217 218 220
340 8 28 166 191 195 201 210 218 224 230 237 243 243 240 234 238 245 125 135 148 156 162 162 159 153 144 137 129 124 128 142 154 163 168 173 179 181 184 187 181 180 188 193 198 202 205 208 207 205 205 209 212 209 202 197 198 207 212 212 215 218 220
21 16 31 98 175 186 186 196 201 209 225 224 227 235 240 251 250 207 148 155 158 155 162 166 157 154 152 144 137 128 117 121 142 160 168 170 178 180 182 191 189 182 185 191 195 199 203 208 211 211 211 213 213 211 208 203 197 201 208 213 218 219 219
252 349 247 107 147 172 170 183 191 195 217 217 222 232 240 257 255 191 151 157 159 155 159 160 156 158 154 145 140 128 118 130 150 163 168 172 180 184 185 188 194 199 199 196 197 199 202 206 210 213 216 217 218 214 211 210 209 208 210 215 220 223 221
229 219 228 221 211 208 203 205 204 195 196 198 207 224 233 238 231 178 159 156 151 155 161 158 157 163 161 157 144 127 136 154 164 167 167 169 169 167 175 186 195 201 198 197 201 201 204 209 211 214 216 218 220 220 217 216 217 217 216 217 219 221 222
234 229 240 232 226 234 224 218 222 210 198 196 197 203 208 202 188 169 161 152 146 157 166 159 154 158 164 167 157 153 164 170 171 172 167 166 167 163 167 181 184 181 179 183 195 203 207 212 216 218 219 219 219 220 220 220 220 220 220 219 217 217 219
242 227 226 235 231 240 239 230 223 212 208 209 203 196 192 190 182 167 155 150 152 161 166 161 159 161 162 163 163 172 181 180 176 177 172 170 174 172 171 175 173 175 177 176 182 192 198 205 213 219 221 222 222 220 220 220 221 221 222 220 218 218 218
235 215 219 235 227 237 241 226 213 208 205 197 182 175 167 173 184 180 171 164 161 163 169 169 165 164 162 162 168 175 182 183 181 182 180 180 180 176 176 176 173 176 181 182 183 186 193 198 202 208 215 222 226 226 224 222 221 222 223 223 222 221 222
216 191 204 231 229 230 215 184 176 176 181 183 176 167 152 147 172 185 180 169 160 160 171 173 168 170 181 191 187 181 182 184 185 185 184 185 184 182 182 182 181 183 182 181 184 186 195 204 205 208 214 219 225 227 227 227 225 224 225 226 225 224 224
222 182 184 221 228 208 175 173 181 180 172 168 167 161 153 155 167 171 168 166 163 157 157 170 179 181 187 197 190 184 186 187 186 188 187 186 186 185 185 185 185 185 184 182 185 187 192 201 207 212 217 221 225 227 228 229 229 229 229 228 227 226 225
228 199 195 216 210 179 181 192 198 198 189 177 174 167 158 158 155 157 161 162 164 163 164 185 196 190 189 200 191 189 194 195 192 194 192 191 192 190 190 191 189 189 189 188 192 196 196 198 203 210 215 220 224 226 230 230 229 230 232 232 231 229 226
226 224 212 199 187 202 215 213 206 202 192 187 188 185 181 174 157 155 163 158 159 170 179 195 199 189 186 204 198 195 199 202 204 205 203 204 204 202 200 201 201 200 199 198 200 206 210 211 215 223 230 235 233 231 232 233 232 232 233 234 236 235 231
228 241 230 202 205 223 210 204 211 209 203 199 191 184 191 189 174 163 166 165 166 170 173 181 184 175 178 200 211 210 208 209 213 216 215 216 217 216 216 216 216 215 214 216 218 221 225 227 229 234 239 246 250 252 252 250 247 244 241 241 245 247 242
232 239 240 228 227 207 178 182 208 223 219 210 195 194 208 207 194 180 169 171 177 173 171 180 178 171 180 194 210 223 224 217 215 217 222 224 225 227 228 229 229 228 229 233 236 239 241 240 241 242 243 245 249 253 259 263 264 261 258 258 260 264 261
237 232 241 243 233 194 187 191 221 236 208 178 180 203 209 201 200 196 183 180 187 184 189 199 186 175 197 199 201 218 233 231 225 222 224 227 230 232 234 236 237 237 238 241 243 246 247 247 247 246 245 244 246 249 252 258 263 266 267 267 265 267 268
236 229 239 243 202 176 199 214 247 245 197 171 185 210 196 187 198 203 189 184 198 203 211 211 185 175 208 209 208 220 234 242 244 241 239 238 237 237 238 238 239 240 242 244 244 245 247 248 248 248 247 245 244 245 247 250 254 257 261 264 265 265 267
242 236 240 243 207 175 200 239 248 219 186 186 202 202 188 189 201 203 187 178 200 216 220 211 193 196 213 212 215 226 233 242 253 257 258 256 252 250 249 247 244 243 243 245 246 246 246 247 247 248 249 248 246 245 244 246 248 250 252 256 259 262 264
242 237 238 244 229 189 199 245 254 207 197 212 209 192 188 192 199 201 190 189 207 225 228 215 209 216 224 221 224 233 238 245 254 258 261 262 261 260 259 257 256 253 250 250 250 250 250 250 249 248 249 249 249 248 246 245 245 247 248 248 250 254 257
235 234 235 237 237 225 217 226 211 202 215 220 207 190 206 210 211 217 213 216 230 239 241 236 230 230 233 232 233 237 240 245 251 256 260 263 264 264 263 262 262 260 259 258 256 256 256 256 254 252 250 250 250 250 250 248 247 248 248 247 246 247 250
233 238 248 234 223 232 239 225 209 214 228 229 218 209 222 226 227 231 230 233 240 240 237 243 244 242 242 242 243 245 245 245 249 255 259 262 265 267 268 268 267 266 266 266 264 263 263 262 261 259 256 254 252 250 251 251 251 251 250 249 247 246 245
248 247 252 248 236 237 242 240 237 236 238 238 230 223 228 236 234 230 230 236 241 241 242 245 248 249 250 248 250 253 253 250 251 254 256 259 262 265 268 271 272 272 271 270 269 268 267 266 266 265 264 262 260 256 254 253 253 252 252 252 252 251 248
250 251 249 246 243 244 244 246 254 255 250 248 243 237 236 241 240 234 234 241 247 250 252 252 253 257 258 256 257 260 259 257 255 254 255 256 257 260 263 267 271 273 273 272 271 270 268 268 267 267 266 266 266 264 261 258 256 255 254 254 254 255 254
241 246 244 236 235 238 239 241 250 259 260 258 254 248 242 243 246 245 243 246 252 257 259 260 259 261 263 263 264 265 267 266 263 260 259 259 258 259 261 262 265 268 270 272 273 272 270 269 268 268 268 267 267 266 265 263 262 260 258 257 256 256 256
239 243 249 253 251 246 245 248 250 254 258 259 255 250 245 244 247 251 251 252 255 258 263 267 265 263 264 266 267 270 273 273 271 269 268 268 267 266 265 265 266 267 269 271 273 273 273 272 270 270 270 269 268 268 266 265 264 263 261 261 259 258 258
244 240 242 247 247 242 242 252 255 249 247 248 244 242 243 244 250 255 256 256 257 260 263 267 268 268 269 270 270 273 274 275 275 276 276 276 274 272 271 270 270 269 271 272 272 274 275 275 274 273 272 271 271 270 269 268 266 264 263 262 261 261 260
238 231 224 227 234 238 237 241 243 239 235 237 240 241 240 239 243 251 254 255 258 262 264 268 271 275 277 277 275 276 279 282 284 285 284 284 282 280 278 276 275 274 273 272 272 273 274 275 275 275 274 274 272 271 271 270 269 267 265 264 262 261 261
240 235 231 232 239 245 241 236 236 234 230 231 237 239 237 233 230 232 240 247 252 258 264 270 275 278 280 281 280 281 284 288 289 289 288 288 288 286 285 283 280 279 277 275 274 273 273 273 274 274 274 274 273 273 272 271 271 270 268 266 264 262 260
249 243 238 240 245 249 247 242 239 238 238 239 241 236 230 228 229 231 235 240 247 254 260 264 267 269 272 274 276 281 285 289 291 292 293 293 293 292 291 288 285 283 281 279 276 275 274 273 273 272 273 273 273 272 271 271 271 270 269 268 266 264 261
Height
3137 3139 3139 3141 3141 3140 3143 3144 3144 3143 3143 3143 3142 3139 3140 3142 3141 3139 3141 3148 3154 3158 3163 3165 3165 3165 3167 3167 3167 3166 3166 3167 3167 3168 3169 3172 3174 3176 3177 3178 3179 3180 3181 3184 3186 3188 3189 3191 3193 3195 3197 3199 3200 3203 3205 3206 3208 3210 3212 3214 3216 3218 3219
3136 3137 3139 3141 3141 3139 3140 3142 3142 3144 3144 3142 3141 3138 3136 3138 3137 3134 3137 3147 3155 3158 3162 3165 3166 3166 3166 3166 3166 3164 3165 3165 3165 3165 3166 3168 3171 3174 3176 3177 3177 3178 3180 3182 3184 3187 3188 3189 3191 3193 3195 3198 3199 3201 3203 3204 3206 3208 3210 3212 3214 3216 3218
3134 3136 3138 3140 3140 3139 3139 3139 3140 3141 3140 3139 3142 3140 3134 3133 3133 3130 3134 3145 3153 3157 3160 3163 3165 3165 3165 3165 3164 3164 3164 3164 3164 3165 3165 3166 3168 3171 3175 3177 3177 3177 3179 3179 3181 3184 3186 3188 3190 3191 3193 3196 3198 3199 3201 3202 3203 3205 3208 3210 3212 3214 3216
3133 3135 3137 3138 3138 3139 3139 3139 3138 3139 3137 3137 3141 3140 3134 3131 3128 3128 3136 3147 3154 3157 3159 3161 3162 3163 3164 3164 3162 3163 3163 3163 3164 3165 3165 3166 3167 3169 3173 3175 3176 3177 3178 3178 3179 3182 3185 3187 3190 3192 3193 3195 3197 3198 3200 3201 3202 3204 3207 3208 3210 3212 3214
3132 3132 3133 3135 3136 3137 3139 3139 3138 3138 3137 3138 3140 3139 3136 3133 3128 3127 3135 3147 3154 3157 3158 3160 3161 3162 3163 3162 3161 3161 3162 3163 3164 3164 3165 3167 3167 3168 3170 3170 3172 3174 3175 3176 3179 3182 3184 3186 3189 3192 3194 3195 3197 3198 3198 3199 3200 3201 3203 3206 3208 3210 3212
3130 3129 3130 3131 3132 3133 3135 3136 3137 3137 3137 3138 3138 3135 3134 3134 3130 3127 3132 3143 3153 3156 3157 3159 3161 3161 3162 3162 3160 3161 3162 3163 3163 3164 3165 3166 3167 3168 3168 3168 3169 3170 3171 3173 3176 3180 3182 3183 3186 3189 3192 3194 3197 3198 3196 3196 3197 3198 3200 3203 3205 3207 3210
3127 3127 3129 3131 3131 3132 3133 3135 3136 3136 3136 3138 3136 3134 3134 3133 3131 3129 3132 3144 3153 3156 3157 3159 3160 3160 3160 3160 3160 3160 3161 3162 3163 3164 3165 3165 3166 3167 3168 3168 3168 3169 3171 3173 3175 3178 3179 3181 3184 3187 3189 3193 3195 3195 3193 3193 3195 3197 3199 3201 3204 3206 3209
3127 3129 3131 3132 3132 3133 3135 3136 3136 3135 3135 3137 3136 3135 3135 3133 3130 3129 3135 3146 3154 3156 3157 3158 3158 3160 3160 3160 3160 3160 3161 3162 3163 3164 3164 3165 3166 3166 3167 3168 3168 3169 3171 3173 3176 3178 3179 3181 3184 3187 3189 3191 3192 3192 3193 3193 3194 3196 3198 3200 3202 3205 3208
3128 3130 3132 3133 3133 3135 3136 3136 3136 3135 3135 3136 3136 3136 3136 3134 3131 3130 3133 3142 3150 3154 3156 3157 3158 3160 3160 3160 3160 3159 3160 3161 3162 3163 3164 3165 3166 3166 3167 3167 3168 3169 3171 3173 3175 3177 3179 3180 3183 3186 3188 3188 3188 3191 3194 3195 3194 3194 3196 3198 3201 3203 3206
3126 3127 3128 3129 3132 3133 3135 3135 3135 3135 3136 3136 3136 3136 3136 3135 3134 3133 3135 3141 3148 3152 3154 3157 3158 3159 3160 3161 3161 3160 3160 3161 3161 3162 3163 3164 3165 3166 3167 3167 3168 3169 3170 3172 3174 3176 3178 3179 3181 3184 3185 3184 3184 3187 3191 3193 3193 3193 3195 3197 3199 3201 3204
3128 3128 3127 3128 3130 3131 3133 3134 3135 3136 3137 3137 3138 3137 3136 3136 3136 3137 3139 3142 3147 3151 3153 3156 3158 3159 3159 3161 3162 3161 3161 3161 3161 3162 3163 3164 3165 3166 3167 3168 3168 3169 3170 3171 3173 3175 3176 3178 3180 3182 3183 3183 3184 3185 3187 3189 3191 3192 3193 3195 3197 3199 3202
3131 3130 3130 3130 3130 3131 3132 3133 3135 3136 3136 3137 3139 3138 3136 3136 3136 3138 3141 3143 3145 3149 3152 3154 3156 3157 3159 3160 3161 3162 3161 3160 3160 3161 3162 3164 3164 3165 3167 3167 3168 3169 3170 3171 3172 3174 3175 3177 3178 3180 3181 3182 3183 3184 3185 3186 3188 3189 3190 3192 3194 3196 3199
3131 3131 3131 3131 3132 3132 3133 3134 3135 3135 3136 3137 3138 3137 3137 3137 3137 3138 3143 3146 3146 3148 3150 3152 3154 3156 3158 3159 3159 3160 3160 3159 3160 3161 3162 3163 3164 3165 3166 3167 3168 3169 3170 3171 3172 3173 3174 3175 3176 3178 3179 3180 3181 3182 3184 3185 3186 3187 3188 3189 3191 3193 3196
3131 3131 3131 3132 3133 3132 3133 3134 3134 3135 3136 3136 3137 3137 3137 3138 3139 3140 3143 3146 3148 3149 3149 3151 3153 3154 3155 3156 3156 3157 3158 3159 3160 3160 3161 3162 3163 3164 3165 3166 3167 3168 3169 3170 3171 3172 3173 3174 3175 3176 3177 3178 3179 3180 3181 3182 3184 3186 3187 3188 3189 3191 3193
3131 3131 3132 3132 3133 3133 3133 3134 3134 3135 3135 3136 3136 3137 3137 3138 3140 3141 3142 3145 3147 3148 3149 3151 3152 3153 3153 3153 3153 3155 3157 3158 3159 3160 3160 3161 3162 3163 3164 3165 3166 3167 3168 3169 3170 3171 3172 3173 3174 3175 3176 3176 3177 3178 3179 3180 3181 3183 3185 3186 3188 3189 3190
3129 3130 3131 3132 3132 3133 3133 3133 3133 3134 3135 3136 3136 3136 3137 3138 3140 3142 3143 3143 3144 3146 3148 3150 3151 3152 3153 3153 3153 3154 3156 3157 3158 3159 3160 3161 3162 3163 3164 3164 3165 3166 3167 3168 3169 3170 3171 3172 3173 3174 3174 3175 3176 3177 3178 3179 3180 3181 3183 3184 3185 3186 3187
3129 3129 3131 3132 3132 3132 3131 3131 3132 3133 3135 3135 3135 3136 3137 3138 3140 3142 3142 3141 3142 3145 3146 3148 3150 3152 3153 3153 3153 3154 3155 3156 3157 3158 3159 3160 3162 3163 3163 3164 3165 3166 3166 3167 3168 3169 3170 3171 3172 3173 3173 3174 3175 3176 3177 3178 3179 3180 3181 3182 3183 3183 3184
3127 3128 3130 3132 3131 3129 3127 3128 3130 3132 3133 3135 3136 3136 3137 3138 3139 3140 3141 3140 3141 3144 3147 3148 3150 3152 3152 3151 3151 3152 3154 3155 3156 3157 3159 3160 3161 3162 3163 3164 3165 3165 3166 3166 3167 3168 3169 3169 3170 3171 3172 3173 3174 3174 3175 3176 3177 3179 3180 3181 3181 3182 3182
3126 3127 3130 3131 3128 3126 3126 3127 3128 3130 3132 3133 3135 3136 3136 3137 3138 3138 3140 3141 3141 3144 3149 3149 3149 3150 3150 3149 3150 3151 3153 3154 3155 3156 3157 3159 3160 3161 3162 3163 3164 3165 3165 3166 3167 3167 3168 3169 3169 3170 3171 3172 3172 3173 3174 3175 3176 3177 3178 3179 3180 3180 3180
3126 3126 3128 3128 3126 3125 3126 3126 3126 3128 3131 3132 3133 3135 3136 3137 3139 3139 3140 3140 3142 3146 3149 3147 3147 3149 3150 3149 3149 3150 3152 3153 3154 3155 3156 3157 3159 3160 3161 3162 3163 3164 3165 3165 3166 3167 3167 3168 3169 3169 3170 3171 3171 3172 3173 3173 3174 3175 3176 3177 3178 3178 3178
3125 3124 3125 3125 3125 3125 3125 3125 3126 3128 3130 3131 3133 3135 3135 3136 3138 3139 3139 3139 3142 3147 3148 3146 3146 3149 3150 3149 3149 3149 3151 3152 3153 3154 3155 3156 3157 3158 3159 3161 3162 3163 3164 3165 3165 3166 3167 3167 3168 3169 3169 3170 3170 3171 3172 3172 3173 3173 3174 3175 3175 3175 3175
3125 3124 3122 3121 3123 3124 3123 3124 3125 3126 3128 3129 3131 3133 3133 3134 3135 3137 3137 3139 3142 3144 3145 3145 3146 3146 3148 3150 3150 3149 3150 3151 3152 3153 3154 3155 3156 3157 3158 3159 3160 3161 3163 3163 3164 3165 3166 3166 3167 3168 3168 3169 3169 3170 3170 3171 3172 3172 3172 3173 3173 3173 3173
3124 3124 3121 3119 3119 3121 3122 3122 3123 3125 3126 3128 3130 3132 3131 3131 3133 3135 3137 3139 3141 3141 3142 3143 3143 3145 3148 3150 3149 3147 3147 3148 3150 3151 3152 3153 3154 3155 3156 3157 3158 3160 3161 3162 3163 3164 3164 3165 3166 3167 3167 3168 3168 3169 3169 3170 3170 3170 3171 3171 3171 3171 3172
3123 3123 3121 3118 3118 3119 3120 3121 3123 3124 3125 3127 3130 3130 3128 3128 3131 3133 3135 3137 3138 3138 3139 3140 3141 3144 3147 3147 3145 3143 3143 3144 3146 3148 3150 3151 3152 3153 3154 3155 3156 3158 3159 3160 3161 3161 3162 3163 3164 3165 3166 3166 3167 3168 3168 3168 3169 3169 3169 3169 3170 3170 3170
3122 3121 3120 3119 3118 3119 3120 3121 3122 3124 3125 3127 3128 3127 3126 3126 3128 3130 3133 3135 3135 3135 3136 3137 3140 3143 3142 3140 3140 3140 3140 3141 3142 3144 3146 3148 3149 3151 3151 3153 3154 3155 3156 3157 3158 3159 3159 3161 3162 3162 3163 3164 3165 3166 3166 3167 3167 3167 3168 3168 3168 3169 3169
3120 3120 3120 3118 3118 3118 3119 3120 3121 3123 3125 3126 3125 3124 3124 3125 3126 3128 3131 3133 3133 3132 3133 3135 3137 3138 3137 3137 3138 3138 3138 3139 3140 3141 3143 3143 3145 3146 3147 3149 3150 3151 3152 3154 3155 3156 3156 3157 3158 3159 3160 3161 3162 3163 3164 3164 3165 3165 3166 3166 3167 3167 3167
3119 3119 3119 3118 3116 3116 3117 3119 3120 3122 3123 3123 3122 3123 3123 3124 3125 3126 3128 3130 3130 3130 3130 3131 3133 3133 3134 3135 3136 3136 3137 3138 3139 3139 3139 3140 3141 3142 3143 3144 3145 3146 3148 3150 3151 3152 3153 3153 3154 3155 3156 3157 3159 3160 3160 3161 3162 3162 3163 3164 3164 3165 3165
3117 3117 3117 3116 3115 3115 3116 3118 3120 3120 3120 3120 3121 3122 3122 3123 3124 3125 3126 3127 3127 3127 3128 3129 3130 3131 3132 3133 3134 3134 3135 3137 3137 3136 3137 3137 3137 3138 3139 3140 3140 3142 3143 3145 3147 3148 3149 3149 3150 3151 3152 3153 3155 3156 3156 3157 3158 3159 3159 3160 3161 3162 3163
3115 3115 3114 3114 3114 3115 3115 3117 3117 3117 3118 3119 3120 3121 3121 3121 3122 3124 3124 3124 3125 3126 3126 3127 3128 3129 3130 3130 3131 3132 3133 3134 3134 3134 3134 3134 3134 3134 3135 3135 3136 3137 3139 3140 3142 3143 3144 3145 3145 3146 3147 3149 3150 3151 3152 3153 3154 3154 3155 3156 3157 3158 3159
3114 3114 3113 3113 3114 3114 3114 3115 3115 3116 3117 3118 3118 3119 3120 3120 3121 3122 3122 3122 3123 3124 3124 3125 3126 3126 3127 3128 3128 3129 3130 3131 3132 3132 3132 3132 3132 3132 3132 3131 3132 3133 3134 3135 3136 3138 3139 3140 3140 3141 3142 3143 3144 3146 3148 3148 3149 3149 3150 3151 3152 3154 3155
3113 3113 3112 3112 3113 3113 3113 3113 3113 3114 3115 3116 3117 3118 3118 3118 3118 3120 3120 3121 3121 3122 3122 3123 3123 3124 3124 3125 3125 3126 3126 3127 3128 3129 3129 3130 3130 3130 3130 3129 3129 3128 3129 3130 3131 3133 3134 3135 3135 3136 3137 3138 3139 3140 3142 3143 3143 3144 3145 3146 3147 3148 3150
3111 3112 3111 3110 3111 3111 3111 3112 3112 3112 3113 3113 3114 3115 3116 3116 3116 3117 3118 3119 3119 3119 3120 3120 3121 3121 3121 3121 3122 3122 3122 3123 3124 3125 3125 3126 3127 3127 3127 3127 3127 3126 3126 3126 3126 3127 3129 3130 3130 3131 3132 3133 3134 3135 3136 3137 3137 3138 3139 3140 3141 3143 3144
3109 3109 3109 3108 3108 3109 3109 3109 3110 3111 3111 3111 3111 3112 3112 3113 3114 3115 3115 3116 3117 3117 3117 3117 3118 3118 3118 3118 3119 3119 3119 3119 3120 3120 3121 3122 3123 3123 3123 3124 3124 3124 3123 3123 3122 3123 3123 3124 3125 3126 3127 3128 3129 3129 3130 3130 3131 3132 3133 3134 3135 3137 3138
3106 3107 3107 3106 3105 3106 3107 3107 3108 3109 3109 3110 3111 3111 3111 3111 3111 3112 3113 3114 3114 3115 3115 3115 3115 3115 3115 3115 3116 3116 3115 3115 3116 3117 3117 3118 3118 3119 3119 3120 3120 3120 3120 3120 3119 3119 3119 3119 3120 3120 3121 3122 3123 3123 3124 3124 3125 3126 3127 3128 3129 3130 3132
3102 3103 3103 3102 3102 3103 3104 3104 3104 3105 3107 3108 3109 3109 3109 3109 3109 3109 3109 3110 3111 3112 3112 3112 3112 3112 3112 3113 3113 3112 3112 3112 3112 3112 3113 3113 3114 3114 3115 3115 3115 3116 3116 3116 3116 3115 3115 3115 3115 3115 3115 3116 3117 3117 3118 3118 3118 3119 3120 3121 3123 3124 3125
3098 3099 3099 3099 3099 3099 3100 3101 3101 3102 3103 3105 3106 3107 3106 3107 3107 3107 3107 3107 3108 3108 3108 3109 3109 3109 3109 3109 3110 3109 3109 3109 3109 3108 3108 3108 3108 3109 3109 3110 3110 3110 3111 3111 3111 3111 3111 3111 3110 3110 3110 3110 3111 3111 3111 3112 3112 3113 3114 3114 3116 3118 3119
3093 3095 3095 3095 3095 3095 3096 3097 3098 3099 3100 3101 3102 3103 3104 3104 3105 3105 3105 3105 3105 3105 3105 3105 3105 3106 3105 3106 3106 3105 3105 3105 3105 3104 3104 3103 3103 3103 3103 3104 3104 3104 3105 3105 3106 3106 3106 3106 3106 3106 3106 3106 3106 3105 3105 3105 3106 3106 3107 3108 3109 3110 3112